Location: Prague
(50.0830°N, 14.4670°E)
Time: 02:58:00
(UTC+02:00)

N. Korean satellite - Visible Passes

Search period start: 21 September 2020 00:00
Search period end: 01 October 2020 00:00
Orbit: 455 x 503 km, 97.2° (Epoch: 20 September)

Date Brightness Start Highest point End Pass type
(mag) Time Alt. Az. Time Alt. Az. Time Alt. Az.
21 Sep 9.4 05:56:44 10° NE 05:59:47 24° E 06:02:46 10° SSE visible
22 Sep 10.0 05:31:47 10° ENE 05:33:32 13° E 05:35:16 10° ESE visible
24 Sep 8.6 06:11:48 10° NNE 06:15:12 34° E 06:18:31 10° SSE visible
25 Sep 9.7 05:46:22 10° NE 05:49:00 18° E 05:51:34 10° SE visible
28 Sep 9.1 06:01:17 10° NE 06:04:25 26° E 06:07:28 10° SSE visible
29 Sep 9.9 05:36:09 10° NE 05:38:10 14° E 05:40:09 10° ESE visible
